Other Public Products
Issued by NWS Grand Forks, ND

Home | Current Version | Previous Version | Graphics & Text | Print | Product List | Glossary On
Versions: 1 2 3 4 5 6 7 8 9 10 11 12 13 14 15 16 17 18 19 20 21 22 23 24 25 26 27 28 29 30 31 32 33 34 35 36 37 38 39 40 41 42 43 44 45 46 47 48 49 50
000
FPUS83 KFGF 262210
OPUFGF
PRAIRIE TO PINES WEATHER ROUNDUP
NATIONAL WEATHER SERVICE EASTERN NORTH DAKOTA/GRAND FORKS ND
500 PM CDT TUE MAY 26 2015

 **SATELLITE DATA USED TO AUGMENT SKY COVER AT AUTOMATED STATIONS**
 *****  WEATHER ACROSS EASTERN NORTH DAKOTA  *****

CITY           SKY/WX    TMP DP  RH WIND       PRES   REMARKS
GRAND FORKS    MOSUNNY   85  44  23 VRB3      29.73S
GRAND FORKS AF TSTM      73  50  43 NW15G30   29.77R
GRAND CITY NWS   N/A     82 N/A N/A N9          N/A
BUXTON         NOT AVBL
DEVILS LAKE    MOSUNNY   81  43  26 SW13      29.78F
FARGO          PTSUNNY   76  56  49 S12       29.77F
WAHPETON ARPT  CLOUDY    72  50  46 SW3       29.80F
$$

 *****  WEATHER ACROSS CENTRAL AND WESTERN NORTH DAKOTA  *****

CITY           SKY/WX    TMP DP  RH WIND       PRES   REMARKS
JAMESTOWN      PTSUNNY   76  47  35 W8        29.79F
BISMARCK       MOSUNNY   80  44  27 N8G17     29.86F
MINOT          PTSUNNY   75  44  33 SE10      29.84R
MINOT AFB      PTSUNNY   79  45  29 SE13      29.81F
GARRISON         N/A     72  50  45 E8        29.87F
WILLISTON      PTSUNNY   81  44  27 SW9       29.87F
DICKINSON      MOSUNNY   76  42  29 SW13G18   29.89F
HETTINGER      MOSUNNY   71  47  42 S12       29.94F
$$

 *****  OTHER OBSERVATIONS NORTHEAST NORTH DAKOTA  *****

CITY           SKY/WX    TMP DP  RH WIND       PRES   REMARKS
WALHALLA         N/A    N/A N/A N/A MISG        N/A
LANGDON        HAZE      82  41  23 N26G38    29.78S VSB 1/2
CAVALIER       FAIR      84  39  20 NW7       29.72F
GRAFTON        FAIR      82  46  28 N7        29.73F
CANDO          FAIR      84  36  17 N14G22    29.79S
FORT TOTTEN      N/A     78  40  25 W6        29.95S
ROLLA            N/A     81  36  19 NW14G21   29.81S
RUGBY          NOT AVBL
 ***** THE ABOVE OBSERVATIONS ARE NON NWS ARE NOT QUALITY
        CONTROLLED AND MAY MIS-REPORT RAIN FOR SNOW...
$$

 *****  OTHER OBSERVATIONS SOUTHEAST NORTH DAKOTA *****

CITY           SKY/WX    TMP DP  RH WIND       PRES   REMARKS
COOPERSTOWN    NOT AVBL
VALLEY CITY    LGT RAIN  75  48  38 NE17G25   29.78S
OAKES            N/A     75  57  53 W9        29.80S
GWINNER        NOT AVBL
SHEYENNE NWR     N/A     78  58  50 S8        29.95
BUFFALO        NOT AVBL
WYNDMERE         N/A     75  54  46 S8          N/A
 ***** THE ABOVE OBSERVATIONS ARE NON NWS ARE NOT QUALITY
       CONTROLLED AND MAY MIS-REPORT RAIN FOR SNOW...
$$

  *****  WEATHER ACROSS NORTHERN MINNESOTA  *****

CITY           SKY/WX    TMP DP  RH WIND       PRES   REMARKS
FLAG ISLAND    SUNNY     70  52  52 SE6       29.73F
WARROAD        MOSUNNY   75  55  50 W6        29.75R
ROSEAU         MOSUNNY   73  50  43 SW10G17   29.75S
HALLOCK        MOSUNNY   82  43  24 NE3       29.72F
THF RVR FALLS  MOSUNNY   81  48  32 SW5       29.76F
HALSTAD        NOT AVBL
FOSSTON        PTSUNNY   77  52  41 S9        29.79F
BAUDETTE       SUNNY     78  50  37 S7        29.75F
WASKISH        PTSUNNY   73  55  53 CALM      29.78F
CROOKSTON      MOSUNNY   79  55  44 SE9       29.74F
$$
  *****  WEATHER ACROSS CENTRAL AND WEST MINNESOTA  *****

CITY           SKY/WX    TMP DP  RH WIND       PRES   REMARKS
BEMIDJI        CLOUDY    72  51  46 CALM      29.79F
PARK RAPIDS    CLOUDY    73  49  42 CALM      29.79F
WADENA         CLOUDY    72  52  49 CALM      29.80S
DETROIT LAKES  CLOUDY    73  50  43 SW3       29.81F
MOORHEAD       PTSUNNY   73  55  53 S7        29.79S
FERGUS FALLS   CLOUDY    72  54  53 CALM      29.79F
ELBOW LAKE     FAIR      71  52  52 NE5       29.81S
MORRIS MN      CLOUDY    72  52  49 NE3       29.80F
STAPLES        CLOUDY    70  50  49 SE5       29.80S
WHEATON        CLOUDY    70  54  56 W3        29.82F
$$
  *****  WEATHER ELSEWHERE ACROSS MINNESOTA  *****

CITY           SKY/WX    TMP DP  RH WIND       PRES   REMARKS
DULUTH         CLOUDY    62  51  67 E10       29.81R
INTRNTL FALLS  PTSUNNY   77  48  35 CALM      29.77S
ELY            NOT AVBL
CLOQUET        CLOUDY    64  48  55 E8G17     29.80S
BRAINERD       CLOUDY    66  53  63 E6        29.80F
HIBBING        CLOUDY    69  51  52 SE6       29.80S
ALEXANDRIA     CLOUDY    69  51  52 NE8       29.83R
SAINT CLOUD    CLOUDY    61  55  81 E5        29.80S
MINNEAPOLIS    LGT RAIN  59  57  93 N12       29.77F
$$

  *****  WEATHER ACROSS SOUTH DAKOTA  *****

CITY           SKY/WX    TMP DP  RH WIND       PRES   REMARKS
SIOUX FALLS    CLOUDY    67  54  63 N12       29.83S
BROOKINGS      CLOUDY    66  52  59 N10       29.85S
WATERTOWN      CLOUDY    70  53  54 VRB6      29.84S
HURON          MOSUNNY   77  48  35 NE9       29.83F
SISSETON         N/A     74  51  44 W3        29.80F
ABERDEEN       CLOUDY    79  52  38 CALM      29.81F
MITCHELL       PTSUNNY   75  53  46 VRB3      29.84F
PIERRE         MOSUNNY   77  50  38 NW14G21   29.88S
MOBRIDGE       SUNNY     79  49  34 W9        29.85F
RAPID CITY     CLOUDY    67  50  54 S10       29.97F
$$

  *****  SOME WEATHER IN NEARBY STATES *****

CITY           SKY/WX    TMP DP  RH WIND       PRES   REMARKS
GLASGOW MT     MOSUNNY   76  41  28 S5        29.87S
GREAT FALLS MT MOSUNNY   64  48  56 NE8       29.96S
CHEYENNE WY    PTSUNNY   59  44  57 SE9       30.04F
SCOTTSBLUFF NE MOSUNNY   68  51  54 SE13      29.99R
OMAHA NE       CLOUDY    65  58  78 W13       29.86R
DES MOINES IA  LGT RAIN  67  63  87 W8        29.79S
DAVENPORT IA   MOSUNNY   73  59  61 W29G37    29.79R
CHICAGO IL     CLOUDY    73  63  70 S18G24    29.75F
EAU CLAIRE WI  LGT RAIN  63  60  90 NW9       29.69F
LA CROSSE WI   LGT RAIN  64  57  78 NW14      29.63R
$$

  *****  SOME NATIONAL WEATHER *****

CITY           SKY/WX    TMP DP  RH WIND       PRES   REMARKS
LA GUARDIA NY  PTSUNNY   79  60  52 S17       30.13F
RALEIGH NC     PTSUNNY   86  66  51 SW8       30.19F
ATLANTA GA     TSTM      67  64  90 S8        30.23R FOG
NEW ORLEANS LA PTSUNNY   86  67  52 SE5       30.06F
OKLAHOMA CITY  PTSUNNY   77  65  66 S14       29.93F
ALBUQUERQUE NM PTSUNNY   74  40  29 SW8       30.08F
SALT LAKE CITY TSTM      59  51  75 NE3       30.01F
LOS ANGELES CA PTSUNNY   64  56  75 W14G21    30.00S
BOISE ID       MOSUNNY   74  40  29 VRB5      29.89F
SEATTLE WA     MOSUNNY   67  51  56 W9        30.04F
$$

*** WEATHER ACROSS MANITOBA...SASKATCHEWAN AND ONTARIO ***
                ***ONTARIO***

CITY           SKY/WX    TMP DP  RH WIND       PRES   REMARKS
GERALDTON      PTSUNNY   72  50  46 SE3       29.79F
THUNDER BAY    CLOUDY    66  54  63 S9        29.80S
SIOUX LOOKOUT  PTSUNNY   77  48  36 W6        29.74F
TORONTO        PTSUNNY   82  63  51 S10G18    29.97F
BIG TROUT LK   SUNNY     59  36  41 NE9G17    29.77S
PICKLE LAKE    PTSUNNY   79  39  24 SW7       29.70S
DRYDEN         MOSUNNY   75  48  38 SW7       29.75F
KENORA         MOSUNNY   79  55  44 S6        29.76F
$$
                *** MANITOBA***

CITY           SKY/WX    TMP DP  RH WIND       PRES   REMARKS
BRANDON        PTSUNNY   82  39  21 NW16G24   29.77S
DAUPHIN        TSTM      72  50  46 SW9       29.78R
ISLAND LAKE    NOT AVBL
PILOT MOUND      N/A     82  36  18 NW9         N/A
THE PAS        PTSUNNY   50  36  57 NE9       29.91S
THOMPSON       PTSUNNY   45  28  53 NE9G17    29.96S
WINNIPEG       MOSUNNY   84  39  20 N12G20    29.72F
LYNN LAKE      SUNNY     52  18  25 NW8G20    29.96R
CHURCHILL      MOSUNNY   32  23  69 NE8       30.03S WCI  25
GILLAM         MOSUNNY   41  23  48 NE8       29.97S
$$
                ***SASKATCHEWAN***

CITY           SKY/WX    TMP DP  RH WIND       PRES   REMARKS
ESTEVAN        LGT RAIN  77  45  31 NW17G24   29.87R
KINDERSLEY     PTSUNNY   81  36  19 N12G18    29.87S
LLOYDMINSTER   MOSUNNY   73  43  33 N13G22    29.92S
PRINCE ALBERT  PTSUNNY   72  46  40 N18G28    29.87R
REGINA         PTSUNNY   81  39  22 W7        29.84S


USA.gov is the U.S. government's official web portal to all federal, state and local government web resources and services.